Regional Weather Roundup
Issued by NWS

Home | Current Version | Previous Version | Graphics & Text | Print | Product List | Glossary On
Versions: 1 2 3 4 5 6 7 8 9 10 11 12 13 14 15 16 17 18 19 20 21 22 23 24 25 26 27
000
ASUS45 KTFX 270610
RWRMT
MONTANA REGIONAL WEATHER ROUNDUP
NATIONAL WEATHER SERVICE GREAT FALLS MT
1100 PM MST SUN FEB 26 2017

NOTE: "FAIR" INDICATES FEW OR NO CLOUDS BELOW 12000 FEET WITH NO
SIGNIFICANT WEATHER AND/OR OBSTRUCTIONS TO VISIBILITY.

MTZ001>007-043-270700-
WEST OF THE DIVIDE

CITY           SKY/WX    TMP DP  RH WIND       PRES   REMARKS
KALISPELL      CLOUDY    19  11  70 N15       29.63S WCI   5
MISSOULA       CLOUDY    28  27  96 E3        29.60S
BUTTE          CLOUDY    21   9  59 CALM      29.52F
MULLAN PASS    LGT SNOW  16  15  96 VRB3      29.46F VSB 1
ANACONDA         N/A     21  16  79 SE12      29.52F WCI   9
DEER LODGE       N/A     25  19  80 SW3       29.55F
EUREKA           N/A     16  12  86 CALM      29.68S
HAMILTON         N/A     27  21  80 S3        29.58S
LIBBY            N/A     23  21  93 CALM      29.64S
PLAINS           N/A     28  23  81 SE3       29.65
RONAN            N/A     22  19  88 N12       29.67S WCI  11
$$

MTZ008-052>055-270700-
SOUTHWEST MONTANA

CITY           SKY/WX    TMP DP  RH WIND       PRES   REMARKS
BOZEMAN        CLOUDY    25  17  72 E5        29.58F
DILLON         CLOUDY    23   7  50 SW12      29.53F WCI  12
W YELLOWSTONE  LGT SNOW  16  14  93 SW3       29.56F
ENNIS          CLOUDY    25  10  54 S15       29.60F WCI  12
THREE FORKS      N/A     22 -22  13 NW7       29.61F WCI  14
TWIN BRIDGES     N/A     23   7  50 CALM      29.61F
$$

MTZ009-010-012-014-046-048-049-054-270700-
EAST SLOPES AND CENTRAL MONTANA

CITY           SKY/WX    TMP DP  RH WIND       PRES   REMARKS
CUT BANK       CLOUDY    11   8  88 NE8       29.70F FOG     WCI  -1
GREAT FALLS    LGT SNOW  15  12  88 N8        29.68F FOG     WCI   4
MALMSTROM AFB  LGT SNOW  15  15  96 NE12      29.70F WCI   2
HELENA         LGT SNOW  17  15  92 W8        29.64S VSB 3/4 WCI   7
AUGUSTA        FLURRIES   9   6  89 N10       29.65F WCI  -5
BOWMANS CRNR   LGT SNOW  10   8  92 N9        29.63F WCI  -2
CHOTEAU          N/A     12  10  92 N9        29.70F FOG     WCI   0
CONRAD           N/A     14  12  92 NW5       29.75F
POWER          FLURRIES  14  11  90 N5        29.68F
RAYNESFORD     LGT SNOW  15  11  84 SE12      29.65F WCI   2
ULM            LGT SNOW  16  14  92 MISG      29.68F
$$

MTZ011-013-016-021-045-047-050-051-270700-
NORTH CENTRAL MONTANA

CITY           SKY/WX    TMP DP  RH WIND       PRES   REMARKS
HAVRE          LGT SNOW  17  14  88 NE9       29.78F FOG     WCI   6
LEWISTOWN      LGT SNOW  16  12  84 E6        29.63F FOG     WCI   7
N BAR RANCH    LGT SNOW  14  12  92 E3        29.64F VSB 1
CHINOOK          N/A     18  14  86 N7        29.80S WCI   8
DENTON         LGT SNOW  17  15  93 N8        29.65F WCI   6
FORT BENTON      N/A     18  16  93 MISG      29.75F
GEYSER         LGT SNOW  14  12  92 N5        29.65F
GRASS RANGE    LGT SNOW  17  15  94 NE5       29.63F
JUDITH GAP     LGT SNOW  13  11  90 N14       29.59F WCI  -2
ROY            LGT SNOW  17  15  93 MISG      29.66F
STANFORD       LGT SNOW  14  12  93 N6        29.62F FOG     WCI   5
WINIFRED       LGT SNOW  16  15  95 NE8       29.67F FOG     WCI   5
$$

MTZ017>020-022>027-061-062-270700-
NORTHEAST MONTANA

CITY           SKY/WX    TMP DP  RH WIND       PRES   REMARKS
GLASGOW        CLOUDY    18  13  80 E5        29.77F
JORDAN           N/A     20  15  81 E8        29.74F WCI  10
SIDNEY         CLOUDY    22  18  85 CALM      29.82S
WOLF POINT     CLOUDY    14  10  84 CALM      29.81F
PLENTYWOOD       N/A     12   9  85 N7        29.79R WCI   2
POPLAR           N/A     12   9  85 W5        29.82S
$$

MTZ028>42-056>058-270700-
SOUTHCENTRAL AND SOUTHEAST MONTANA

CITY           SKY/WX    TMP DP  RH WIND       PRES   REMARKS
BAKER          CLOUDY    21  18  88 SE8       29.73F WCI  11
BILLINGS       MOCLDY    24  19  81 N8        29.61F WCI  15
LIVINGSTON     CLOUDY    27  12  53 SW20      29.53F WCI  13
MILES CITY     CLOUDY    25  17  72 NE12      29.72F HAZE    WCI  14
BIG TIMBER     CLOUDY    28  12  50 W10       29.58F WCI  19
FORSYTH          N/A     25  19  80 NE13      29.69F WCI  13
HARLOWTON      LGT SNOW  17  14  88 N13       29.60F WCI   3
LAUREL           N/A     26  18  72 MISG      29.62F
$$

REGIONAL REPORTS...DAKOTAS

CITY           SKY/WX    TMP DP  RH WIND       PRES   REMARKS
WILLISTON      CLEAR     11   7  84 W6        29.80F WCI   1
MINOT          CLOUDY    16  11  80 SW7       29.80S WCI   6
DICKINSON      PTCLDY    13   9  84 S3        29.76S
BEACH            N/A    N/A N/A N/A MISG        N/A
CROSBY           N/A     12  10  92 W10       29.82R WCI  -1
TIOGA            N/A      9   9 100 W5        29.79S FOG
WATFORD CITY   FLURRIES  16  12  86 CALM      29.80S
BISMARCK       CLOUDY    11   9  92 CALM      29.85F
GRAND FORKS    PTCLDY     7  -1  70 S8        29.90F WCI  -6
FARGO          CLOUDY    20  14  77 SE7       29.91S WCI  11
BUFFALO SD       N/A     22  19  89 NE8       29.67F WCI  12
RAPID CITY     CLOUDY    26  16  65 W3        29.75F
$$

REGIONAL REPORTS...WYOMING/IDAHO/WASHINGTON

CITY           SKY/WX    TMP DP  RH WIND       PRES   REMARKS
GILLETTE       CLOUDY    22  12  65 SW13      29.64F WCI  10
SHERIDAN       CLOUDY    25  15  66 SE9       29.61F WCI  15
BUFFALO WY     CLOUDY    20   5  52 SW3       29.60F
CODY           CLOUDY    20   7  57 SE9       29.59F WCI   9
YELLOWSTONE LA   N/A     10   8  92 CALM      29.55F
IDAHO FALLS    LGT SNOW  25  22  88 S8        29.64F FOG     WCI  16
SALMON         CLOUDY    27  16  63 N3        29.60S
BOISE          PTCLDY    30  23  75 SE8       29.66F WCI  22
SPOKANE        FOG       21  20  96 SW3       29.64S VSB 1/8
$$

REGIONAL REPORTS...ALBERTA

CITY           SKY/WX    TMP DP  RH WIND       PRES   REMARKS
EDMONTON       CLEAR      5  -4  66 SW6       29.75F WCI  -6
CALGARY        LGT SNOW   9   5  85 S7        29.72F WCI  -3
LETHBRIDGE     LGT SNOW  10   9  92 NE5       29.77F
MEDICINE HAT   CLEAR      5   0  78 NE6       29.84F WCI  -6
WATERTON GATE    N/A      7   3  85 N8          N/A  WCI  -6
CARDSTON         N/A      9   5  85 E3          N/A
MILK RIVER       N/A     12   9  85 NE9         N/A  WCI   0
$$

REGIONAL REPORTS...SASKATCHEWAN

CITY           SKY/WX    TMP DP  RH WIND       PRES   REMARKS
SWIFT CURRENT  CLOUDY     3   0  85 N9        29.76F WCI -11
REGINA         MOCLDY     3   0  85 W9        29.81R WCI -11
SASKATOON      CLEAR     -9 -13  84 NW8       29.87S WCI -26
CYPRESS HILLS    N/A      1  -4  78 N6          N/A  WCI -10
VAL MARIE        N/A     12   9  85 N3          N/A
ROCKGLEN         N/A      5   1  85 N7          N/A  WCI  -7
ASSINIBOIA       N/A      1  -4  78 SW7         N/A  WCI -11
$$




USA.gov is the U.S. government's official web portal to all federal, state and local government web resources and services.